EW5705 Weather Reports


Display with metric or nautical units.
time (UTC)temp
F
wind
direction
speed
MPH
gust
MPH
rain 1hr
in
rain 24hr
in
rain mn
in
humidity
%
barometer
mb
20260508033017 49 74 0.0 2.0 0.00 1.29 0.00 96 1001.7
20260508031509 48 74 0.0 2.0 0.00 1.29 0.00 95 1001.8
20260508030006 48 74 0.0 5.0 0.00 1.29 0.00 96 1001.9
20260508024507 49 237 1.0 8.0 0.00 1.29 1.29 96 1001.7
20260508023013 47 147 0.0 3.0 0.00 1.29 1.29 96 1001.8
20260508021503 47 147 0.0 7.0 0.00 1.29 1.29 95 1001.6
20260508020003 49 201 0.0 6.0 0.00 1.29 1.29 96 1001.5
20260508014505 48 200 0.0 6.0 0.00 1.29 1.29 96 1001.6
20260508013001 47 199 4.0 8.0 0.00 1.29 1.29 96 1001.4
20260508011603 48 197 3.0 12.0 0.00 1.29 1.29 95 1001.1
20260508010057 50 200 6.0 10.0 0.00 1.29 1.29 96 1001.2
20260508004559 50 239 3.0 14.0 0.00 1.29 1.29 96 1001.1
20260508003104 49 199 7.0 11.0 0.00 1.29 1.29 96 1001.6
20260508001554 49 200 3.0 7.0 0.00 1.29 1.29 96 1001.7
20260508000053 49 202 4.0 12.0 0.00 1.29 1.29 96 1001.8
20260507234553 49 191 2.0 8.0 0.00 1.29 1.29 95 1001.7
20260507233054 50 203 2.0 8.0 0.00 1.29 1.29 95 1001.4
20260507231557 50 195 6.0 12.0 0.00 1.29 1.29 95 1001.8
20260507230050 50 202 7.0 12.0 0.00 1.29 1.29 95 1001.8
20260507224600 50 214 8.0 12.0 0.00 1.29 1.29 95 1001.8
20260507223051 50 216 9.0 14.0 0.00 1.29 1.29 94 1001.9
20260507221549 51 200 5.0 10.0 0.00 1.29 1.29 94 1002.0
20260507220048 52 205 7.0 11.0 0.00 1.29 1.29 94 1002.1
20260507214548 52 355 7.0 15.0 0.02 1.29 1.29 94 1002.3
20260507213050 52 355 6.0 12.0 0.04 1.29 1.29 95 1002.2
20260507211550 51 216 7.0 12.0 0.11 1.29 1.29 95 1002.1
20260507210111 51 189 5.0 8.0 0.20 1.29 1.29 95 1001.7
20260507204546 51 189 6.0 10.0 0.28 1.27 1.27 95 1002.6
20260507203043 51 202 6.0 10.0 0.43 1.24 1.24 95 1002.7
20260507201539 51 355 9.0 15.0 0.49 1.18 1.18 95 1003.3
20260507200051 50 202 5.0 15.0 0.50 1.09 1.09 95 1003.4
20260507194536 50 355 8.0 16.0 0.55 0.97 0.97 94 1004.1
20260507193101 50 355 13.0 24.0 0.50 0.81 0.81 94 1004.4
20260507191533 51 201 11.0 19.0 0.49 0.69 0.69 93 1004.7
20260507190038 53 355 7.0 13.0 0.42 0.57 0.57 93 1004.5
20260507184531 54 203 9.0 14.0 0.24 0.41 0.41 92 1004.6
20260507183037 55 218 10.0 20.0 0.14 0.31 0.31 93 1005.0
20260507181529 55 204 11.0 17.0 0.04 0.20 0.20 92 1004.4
20260507180031 55 206 9.0 15.0 0.01 0.17 0.17 90 1004.4
20260507174527 55 202 9.0 16.0 0.01 0.17 0.17 91 1004.2
20260507173024 55 355 8.0 19.0 0.01 0.17 0.17 91 1004.5
20260507171522 55 197 8.0 16.0 0.00 0.16 0.16 91 1004.9
20260507170022 55 355 9.0 20.0 0.00 0.16 0.16 89 1005.2
20260507164517 55 355 12.0 21.0 0.00 0.16 0.16 90 1005.6
20260507163016 55 197 9.0 18.0 0.00 0.16 0.16 88 1005.9
20260507161519 55 237 10.0 19.0 0.00 0.16 0.16 88 1006.4
20260507160017 55 216 9.0 21.0 0.00 0.16 0.16 88 1006.5
20260507154512 55 197 12.0 22.0 0.00 0.16 0.16 88 1006.9
20260507153015 56 197 11.0 20.0 0.00 0.16 0.16 88 1007.3
20260507151506 56 197 12.0 21.0 0.00 0.16 0.16 88 1007.4
20260507150003 55 203 13.0 24.0 0.00 0.16 0.16 89 1007.8
20260507144606 55 355 9.0 21.0 0.00 0.16 0.16 90 1008.0
20260507143101 55 206 10.0 20.0 0.00 0.16 0.16 90 1008.6
20260507141615 55 200 9.0 21.0 0.00 0.16 0.16 90 1008.8
20260507134603 55 206 11.0 24.0 0.00 0.16 0.16 89 1009.0
20260507133154 56 355 14.0 24.0 0.00 0.16 0.16 89 1009.2
20260507131552 56 216 15.0 26.0 0.00 0.16 0.16 89 1009.2
20260507130049 55 241 10.0 22.0 0.00 0.16 0.16 91 1009.1
20260507124548 55 204 12.0 24.0 0.05 0.16 0.16 92 1008.9
20260507123047 54 175 13.0 23.0 0.09 0.16 0.16 92 1009.5
20260507121541 54 203 14.0 22.0 0.11 0.16 0.16 94 1009.9
20260507120037 53 355 11.0 18.0 0.14 0.16 0.16 94 1010.5
20260507114536 53 200 12.0 23.0 0.09 0.11 0.11 94 1011.1
20260507113037 53 162 9.0 20.0 0.05 0.06 0.06 94 1011.1
20260507111538 53 188 11.0 22.0 0.03 0.05 0.05 94 1011.3
20260507110033 52 208 8.0 19.0 0.00 0.02 0.02 93 1011.2
20260507104530 53 198 10.0 17.0 0.00 0.02 0.02 93 1011.2
20260507103032 53 201 8.0 18.0 0.00 0.02 0.02 94 1011.5
20260507101528 53 208 7.0 14.0 0.00 0.02 0.02 94 1011.8
20260507100026 53 197 3.0 7.0 0.00 0.02 0.02 95 1011.6
20260507094526 53 198 3.0 11.0 0.00 0.02 0.02 95 1011.9
20260507093033 53 200 4.0 12.0 0.01 0.02 0.02 95 1012.1
20260507091522 52 217 6.0 12.0 0.01 0.02 0.02 96 1012.3
20260507090021 51 355 6.0 10.0 0.01 0.02 0.02 96 1012.2
20260507084521 50 203 6.0 14.0 0.01 0.02 0.02 95 1012.3
20260507083026 50 191 5.0 9.0 0.00 0.01 0.01 93 1012.2
20260507081529 53 198 3.0 7.0 0.01 0.01 0.01 95 1012.3
20260507080020 52 355 5.0 12.0 0.01 0.01 0.01 95 1012.7
20260507074514 52 178 9.0 14.0 0.01 0.01 0.01 95 1012.9
20260507073011 51 216 5.0 10.0 0.01 0.01 0.01 95 1013.3
20260507071509 51 197 3.0 10.0 0.00 0.00 0.00 95 1013.2
20260507070011 50 200 8.0 11.0 0.00 0.00 0.00 95 1013.5
20260507064506 49 195 5.0 9.0 0.00 0.00 0.00 93 1013.5
20260507061538 51 193 5.0 9.0 0.00 0.00 0.00 94 1014.0
20260507060036 51 202 3.0 8.0 0.00 0.00 0.00 94 1014.3
20260507054536 50 355 6.0 12.0 0.00 0.00 0.00 94 1014.4
20260507053032 49 216 8.0 12.0 0.00 0.00 0.00 93 1014.6
20260507051529 49 355 7.0 14.0 0.00 0.00 0.00 93 1014.7
20260507050035 49 208 3.0 8.0 0.00 0.00 0.00 93 1015.1
20260507044524 49 355 6.0 8.0 0.00 0.00 0.00 92 1015.4
20260507043023 49 189 7.0 12.0 0.00 0.00 0.00 91 1015.6
20260507041536 50 179 4.0 10.0 0.00 0.00 0.00 92 1015.9
20260507040016 50 187 7.0 12.0 0.00 0.00 0.00 93 1016.0
20260507034515 49 222 7.0 13.0 0.00 0.00 0.00 93 1016.3